Regional Weather Roundup
Issued by NWS State College, PA

Home | Current Version | Previous Version | Text Only | Print | Product List | Glossary Off
Versions: 1 2 3 4 5 6 7 8 9 10 11 12 13 14 15 16 17 18 19 20 21 22 23 24 25 26 27 28 29 30 31 32 33 34 35 36 37 38 39 40 41 42 43 44 45 46 47 48 49 50

000
ASUS41 KCTP 290910
RWRCTP

REGIONAL WEATHER ROUNDUP
NATIONAL WEATHER SERVICE STATE COLLEGE PA
400 AM EST MON DEC 29 2014

Note: "fair" indicates few or no clouds below 12,000 feet with no
significant weather and/or obstructions to visibility.

* = STATION THAT DOES NOT REPORT PRECIPITATION /E.G. RAIN...SNOW...ETC/
    THUNDER OR FOG.

PAZ002>004-007>009-013>016-020>023-029>032-291000-
WESTERN PENNSYLVANIA

CITY           SKY/WX    TMP DP  RH WIND       PRES   REMARKS
ERIE           CLOUDY    33  21  61 NW7       30.20S
MEADVILLE      MOCLDY    29  22  75 CALM      30.16R
FRANKLIN*      MOCLDY    28  23  80 NW3       30.17S
NEW CASTLE       N/A     31  25  78 CALM      30.20S
BEAVER COUNTY  NOT AVBL
BUTLER*        FAIR      30  25  80 CALM      30.19S
PITTSBURGH INT CLOUDY    33  25  72 N6        30.17F
PITTSBURGH     CLOUDY    32  24  72 N9        30.15F
INDIANA*       CLOUDY    32  30  93 NW5       30.20S
LATROBE        CLOUDY    32  32 100 N3        30.19S
WASHINGTON CO* NOT AVBL
$$

PAZ004>006-010>012-017>019-024>028-033>037-041-042-045-046-049>053-291000-
CENTRAL PENNSYLVANIA

CITY           SKY/WX    TMP DP  RH WIND       PRES   REMARKS
BRADFORD       MOCLDY    26  19  74 W5        30.11S
DUBOIS         CLOUDY    30  27  88 VRB5      30.13R
CLEARFIELD     CLOUDY    31  26  82 W3        30.14S
JOHNSTOWN      CLOUDY    29  26  89 NW7       30.11R
ALTOONA        MOCLDY    31  25  78 NW5       30.14R
STATE COLLEGE  MOCLDY    30  25  81 SW3       30.15R
WILLIAMSPORT   MOCLDY    31  24  75 NW5       30.15S
SELINSGROVE    MOCLDY    32  26  78 CALM      30.17R
FT INDIANTOWN  CLOUDY    37  24  60 NW5       30.17R
CAPITAL CITY   CLOUDY    38  24  57 CALM      30.17R
HARRISBURG     CLOUDY    36  24  62 NW6       30.16S
YORK           CLOUDY    38  26  62 N6        30.16R
$$

PAZ038>040-043-044-047-048-054-055-060>062-067>071-291000-
EASTERN PENNSYLVANIA

CITY           SKY/WX    TMP DP  RH WIND       PRES   REMARKS
SCRANTON       PTCLDY    33  21  61 MISG      30.11S
MOUNT POCONO   MOCLDY    29  20  69 NW9       30.04F
ALLENTOWN      CLOUDY    35  23  61 CALM      30.13F
QUAKERTOWN*    CLOUDY    36  25  64 CALM      30.14F
READING        CLOUDY    38  24  57 CALM      30.15S
LANCASTER      CLOUDY    38  27  64 N6        30.15S
COATESVILLE    CLOUDY    39  28  65 N8        30.14S
POTTSTOWN      CLOUDY    38  25  59 N6        30.15S
BLUE BELL      CLOUDY    39  27  60 N5        30.14R
DOYLESTOWN     CLOUDY    36  24  62 N5        30.14R
WILLOW GROVE   NOT AVBL
NORTH PHILA    CLOUDY    42  23  46 N13       30.16S
PHILADELPHIA   CLOUDY    42  28  57 N13       30.15S
$$



USA.gov is the U.S. government's official web portal to all federal, state and local government web resources and services.